Location: Rife
(54.1814°N, 111.0275°W)
Time: 05:07:40
(UTC+00:00)

Envisat - Visible Passes

Search period start: 28 November 2021 00:00
Search period end: 08 December 2021 00:00
Orbit: 764 x 766 km, 98.2° (Epoch: 27 November)

Date Brightness Start Highest point End Pass type
(mag) Time Alt. Az. Time Alt. Az. Time Alt. Az.
28 Nov 5.5 00:35:03 10° SW 00:39:08 24° W 00:43:17 10° NW visible
28 Nov 5.9 10:58:09 10° NE 11:00:41 14° E 11:03:13 10° ESE visible
28 Nov 3.1 12:35:30 10° NNE 12:40:37 75° ESE 12:45:42 10° S visible
28 Nov 4.0 14:15:13 10° N 14:19:12 23° NW 14:23:09 10° WSW visible
28 Nov 4.3 23:57:06 10° S 00:01:58 45° W 00:06:52 10° NNW visible
29 Nov 4.3 11:58:48 10° NNE 12:03:36 39° E 12:08:21 10° SSE visible
29 Nov 3.4 13:37:55 10° N 13:42:38 40° WNW 13:47:21 10° SW visible
30 Nov 5.9 01:01:45 10° WSW 01:04:48 16° W 01:07:51 10° NW visible
30 Nov 5.3 11:22:30 10° NE 11:26:22 21° E 11:30:13 10° SE visible
30 Nov 2.9 13:00:51 10° NNE 13:05:56 72° WNW 13:11:00 10° SSW visible
01 Dec 5.2 00:23:04 10° SSW 00:27:28 29° W 00:31:55 10° NNW visible
01 Dec 6.1 10:47:33 10° ENE 10:48:56 11° E 10:50:20 10° E visible
01 Dec 3.4 12:23:58 10° NNE 12:29:03 62° ESE 12:34:04 10° S visible
01 Dec 3.9 14:03:30 10° N 14:07:45 27° WNW 14:11:59 10° WSW visible
01 Dec 3.9 23:45:22 10° S 23:50:21 55° W 23:55:22 10° NNW visible
02 Dec 4.6 11:47:22 10° NNE 11:51:57 33° E 11:56:30 10° SSE visible
02 Dec 3.2 13:26:17 10° N 13:31:10 47° WNW 13:36:01 10° SW visible
03 Dec 5.8 00:49:30 10° SW 00:53:05 19° W 00:56:41 10° NW visible
03 Dec 5.6 11:11:16 10° NE 11:14:40 18° E 11:18:03 10° SE visible
03 Dec 2.9 12:49:16 10° NNE 12:54:24 86° W 12:59:29 10° SSW visible
03 Dec 4.3 14:29:14 10° N 14:32:46 19° NW 14:36:17 10° W visible
04 Dec 4.8 00:11:11 10° SSW 00:15:49 35° W 00:20:30 10° NNW visible
04 Dec 3.8 12:12:27 10° NNE 12:17:26 51° E 12:22:22 10° S visible
04 Dec 3.7 13:51:48 10° N 13:56:18 32° WNW 14:00:46 10° WSW visible
05 Dec 6.1 01:16:51 10° WSW 01:18:47 12° W 01:20:45 10° WNW visible
05 Dec 4.9 11:35:58 10° NE 11:40:17 27° E 11:44:35 10° SSE visible
05 Dec 3.0 13:14:39 10° N 13:19:39 57° WNW 13:24:37 10° SW visible
06 Dec 5.6 00:37:23 10° SW 00:41:23 23° W 00:45:24 10° NW visible
06 Dec 5.8 11:00:10 10° NE 11:02:57 15° E 11:05:42 10° ESE visible
06 Dec 3.0 12:37:42 10° NNE 12:42:49 79° ESE 12:47:55 10° SSW visible
06 Dec 4.1 14:17:28 10° N 14:21:20 22° NW 14:25:12 10° WSW visible
06 Dec 4.4 23:59:22 10° S 00:04:10 42° W 00:09:02 10° NNW visible
07 Dec 4.2 12:00:58 10° NNE 12:05:49 42° E 12:10:37 10° SSE visible
07 Dec 3.4 13:40:08 10° N 13:44:49 38° WNW 13:49:29 10° SW visible
